Tracking 28790 objects as of 19-Apr-2024
HD Live streaming from Space Station
objects crossing your sky now

CRRES DEB (CANISTER)

Track CRRES DEB (CANISTER) now!


NORAD ID: 20469
Int'l Code: 1990-065T
Perigee: 320.1 km
Apogee: 30,748.8 km
Inclination: 17.7 °
Period: 537.8 minutes
Semi major axis: 21905 km
RCS: 0.1265 m2 (medium)
Launch date: July 25, 1990
Source: United States (US)
Launch site: AIR FORCE EASTERN TEST RANGE (AFETR)

Note: This is SATELLITE DEBRIS
Your satellite tracking list
Your tracking list is empty




NASA's NSSDC Master Catalog

Two Line Element Set (TLE):
1 20469U 90065T   24107.79101184  .00001573  00000-0  98690-3 0  9997
2 20469  17.6552 248.5176 6945479  32.3919 355.5370  2.67778772263487
Source of the keplerian elements: AFSPC